EW9634 Weather Reports


Display with metric or nautical units.
time (UTC)temp
F
wind
direction
speed
MPH
gust
MPH
rain 1hr
in
rain 24hr
in
rain mn
in
humidity
%
barometer
mb
20260505114024 49 45 4.0 6.0 0.00 1.13 1.13 85 1006.5
20260505113004 49 68 6.0 10.0 0.00 1.13 1.13 85 1006.2
20260505112004 49 68 2.0 4.0 0.00 1.13 1.13 84 1006.6
20260505111004 49 68 3.0 5.0 0.00 1.13 1.13 83 1006.4
20260505102004 50 45 9.0 15.0 0.00 1.13 1.13 79 1006.0
20260505101004 50 45 11.0 17.0 0.00 1.13 1.13 79 1006.0
20260505100004 50 45 9.0 12.0 0.00 1.13 1.13 79 1005.9
20260505095024 50 45 8.0 12.0 0.00 1.13 1.13 80 1005.9
20260505094003 50 23 7.0 11.0 0.00 1.13 1.13 80 1005.6
20260505093004 50 45 9.0 12.0 0.00 1.13 1.13 80 1005.7
20260505092003 50 45 10.0 13.0 0.00 1.13 1.13 82 1005.3
20260505091023 49 45 9.0 14.0 0.00 1.13 1.13 83 1005.1
20260505090008 49 23 8.0 15.0 0.04 1.13 1.13 83 1005.0
20260505085003 49 45 7.0 9.0 0.12 1.13 1.13 84 1004.6
20260505084003 49 23 10.0 15.0 0.18 1.13 1.13 85 1004.2
20260505083004 49 0 13.0 20.0 0.21 1.13 1.13 86 1003.4
20260505082023 49 45 11.0 16.0 0.26 1.13 1.13 86 1002.1
20260505081003 50 45 12.0 18.0 0.30 1.13 1.13 86 1001.5
20260505080005 51 45 12.0 20.0 0.26 1.08 1.08 85 1004.0
20260505075003 52 68 7.0 11.0 0.20 1.00 1.00 83 1005.2
20260505074003 53 0 8.0 10.0 0.16 0.94 0.94 82 1006.3
20260505073004 53 338 9.0 14.0 0.22 0.91 0.91 83 1006.6
20260505072004 54 315 10.0 13.0 0.42 0.86 0.86 81 1006.3
20260505071004 55 0 9.0 11.0 0.63 0.83 0.83 81 1005.3
20260505070005 55 23 5.0 8.0 0.75 0.81 0.81 83 1004.5
20260505065003 55 0 7.0 10.0 0.80 0.80 0.80 86 1004.1
20260505064003 56 0 5.0 8.0 0.77 0.77 0.77 84 1004.2
20260505063003 56 23 6.0 8.0 0.68 0.68 0.68 84 1004.3
20260505062003 57 0 11.0 15.0 0.42 0.42 0.42 80 1003.5
20260505061028 59 23 12.0 17.0 0.18 0.18 0.18 75 1003.4
20260505060004 63 0 10.0 15.0 0.03 0.03 0.03 68 1002.9
20260505055003 66 23 10.0 21.0 0.00 0.00 0.00 63 1002.4
20260505054003 68 23 14.0 19.0 0.00 0.00 0.00 56 1002.2
20260505053004 69 0 14.0 17.0 0.00 0.00 0.00 55 1001.9
20260505052003 69 23 11.0 16.0 0.00 0.00 0.00 70 1001.7
20260505051003 69 338 11.0 14.0 0.00 0.00 0.00 75 1001.6
20260505041004 70 203 7.0 9.0 0.00 0.00 0.00 75 1001.0
20260505040009 70 203 6.0 9.0 0.00 0.00 0.00 75 1001.2
20260505035024 70 180 4.0 7.0 0.00 0.00 0.00 75 1001.1
20260505034003 70 158 2.0 7.0 0.00 0.00 0.00 75 1001.1
20260505033004 71 180 4.0 7.0 0.00 0.00 0.00 75 1001.2
20260505032003 71 203 6.0 8.0 0.00 0.00 0.00 75 1001.0
20260505031003 71 203 3.0 5.0 0.00 0.00 0.00 74 1000.8
20260505030009 71 180 3.0 7.0 0.00 0.00 0.00 74 1000.9
20260505025004 72 180 4.0 6.0 0.00 0.00 0.00 72 1000.7
20260505024105 72 203 2.0 3.0 0.00 0.00 0.00 71 1000.5
20260505023025 72 180 4.0 6.0 0.00 0.00 0.00 70 1000.4
20260505022004 72 180 3.0 5.0 0.00 0.00 0.00 70 1000.2
20260505021005 72 203 2.0 3.0 0.00 0.00 0.00 69 1000.2
20260505020004 73 0.0 2.0 0.00 0.00 0.00 67 1000.1
20260505015004 74 248 2.0 3.0 0.00 0.00 0.00 67 1000.0
20260505014003 74 225 1.0 2.0 0.00 0.00 0.00 65 999.7
20260505013004 74 248 1.0 1.0 0.00 0.00 0.00 65 999.6
20260505012003 74 248 1.0 3.0 0.00 0.00 0.00 65 999.5
20260505011003 74 270 1.0 2.0 0.00 0.00 0.00 65 999.3
20260505010004 75 248 2.0 2.0 0.00 0.00 0.00 65 999.3
20260505005023 76 248 2.0 3.0 0.00 0.00 0.00 62 999.2
20260505004004 77 0.0 1.0 0.00 0.00 0.00 62 999.0
20260505003004 78 0.0 1.0 0.00 0.00 0.00 60 998.9
20260505002023 78 225 1.0 2.0 0.00 0.00 0.00 61 998.9
20260505001023 78 248 2.0 4.0 0.00 0.00 0.00 60 999.0
20260505000004 78 248 1.0 2.0 0.00 0.00 0.00 56 999.1
20260504235003 78 270 2.0 3.0 0.00 0.00 0.00 59 999.1
20260504234003 79 248 2.0 3.0 0.00 0.00 0.00 55 999.0
20260504233003 79 248 2.0 3.0 0.00 0.00 0.00 54 999.1
20260504232003 80 248 5.0 7.0 0.00 0.00 0.00 53 999.3
20260504231003 80 225 3.0 7.0 0.00 0.00 0.00 52 999.2
20260504230004 80 203 3.0 5.0 0.00 0.00 0.00 53 999.2
20260504225003 81 203 6.0 9.0 0.00 0.00 0.00 51 999.3
20260504224003 81 225 5.0 8.0 0.00 0.00 0.00 51 999.2
20260504223003 81 225 7.0 12.0 0.00 0.00 0.00 53 999.2
20260504222003 81 248 8.0 10.0 0.00 0.00 0.00 50 999.3
20260504221003 81 270 7.0 10.0 0.00 0.00 0.00 54 999.3
20260504220004 80 203 8.0 11.0 0.00 0.00 0.00 52 999.4
20260504215003 81 225 6.0 10.0 0.00 0.00 0.00 51 999.6
20260504214003 80 248 7.0 10.0 0.00 0.00 0.00 53 999.7
20260504213004 80 203 4.0 9.0 0.00 0.00 0.00 52 999.7
20260504212003 80 225 9.0 13.0 0.00 0.00 0.00 55 999.8
20260504211003 79 248 8.0 11.0 0.00 0.00 0.00 53 999.9
20260504210008 79 225 6.0 11.0 0.00 0.00 0.00 53 999.9
20260504205003 79 203 9.0 15.0 0.00 0.00 0.00 52 1000.1
20260504204003 80 225 5.0 7.0 0.00 0.00 0.00 54 1000.2
20260504203023 80 225 8.0 10.0 0.00 0.00 0.00 52 1000.2
20260504202023 80 248 8.0 12.0 0.00 0.00 0.00 51 1000.2
20260504201002 80 203 9.0 15.0 0.00 0.00 0.00 51 1000.2
20260504200003 80 203 10.0 14.0 0.00 0.00 0.00 54 1000.3
20260504195003 79 203 8.0 12.0 0.00 0.00 0.00 52 1000.3
20260504194003 79 203 8.0 10.0 0.00 0.00 0.00 53 1000.2
20260504193004 79 180 14.0 19.0 0.00 0.00 0.00 52 1000.2
20260504192003 79 225 7.0 12.0 0.00 0.00 0.00 54 1000.3
20260504191003 79 225 5.0 8.0 0.00 0.00 0.00 55 1000.4
20260504190002 78 203 8.0 10.0 0.00 0.00 0.00 52 1000.4
20260504185003 78 225 12.0 16.0 0.00 0.00 0.00 54 1000.4
20260504184003 78 248 10.0 12.0 0.00 0.00 0.00 52 1000.5
20260504183003 78 248 7.0 9.0 0.00 0.00 0.00 52 1000.6
20260504182002 77 225 6.0 9.0 0.00 0.00 0.00 51 1000.5
20260504181023 77 203 10.0 15.0 0.00 0.00 0.00 52 1000.6
20260504180003 76 248 11.0 15.0 0.00 0.00 0.00 52 1000.7
20260504175043 76 248 12.0 17.0 0.00 0.00 0.00 53 1000.9
20260504174023 76 248 10.0 13.0 0.00 0.00 0.00 55 1000.9
20260504173023 75 248 8.0 12.0 0.00 0.00 0.00 55 1000.9
20260504172003 75 270 11.0 14.0 0.00 0.00 0.00 55 1001.0
20260504171003 74 203 6.0 14.0 0.00 0.00 0.00 57 1001.1
20260504151003 70 203 11.0 15.0 0.00 0.00 0.00 59 1001.4
20260504141002 68 203 9.0 13.0 0.00 0.00 0.00 62 1001.4